Volver al catálogo

STARLINK-35511

ActivoComunicacionesVLEO
NORAD 66344·PAYLOAD·🇺🇸 United States

Lanzado Nov 6, 2025 desde Cape Canaveral Space Force Station

Loading…

Próximos Pases (próximas 24 horas)

TLE

ActualizadoSource: CelesTrak SupGP

Época: Sep 15, 2026, 02:41 UTC

1 66344C 25253AB  26258.11229167 -.00026567  00000+0 -96241-3 0  2582
2 66344  43.0017 222.3728 0001190 264.1518 270.2237 15.27586456    17

Sigue STARLINK-35511 en tiempo real con AllMySat

Download on the App Store